Regional Weather Roundup
Issued by NWS Wakefield, VA

Home | Current Version | Previous Version | Graphics & Text | Print | Product List | Glossary On
Versions: 1 2 3 4 5 6 7 8 9 10 11 12 13 14 15 16 17 18 19 20 21 22 23 24 25 26 27
000
ASUS41 KAKQ 230015
RWRAKQ

REGIONAL WEATHER ROUNDUP
NATIONAL WEATHER SERVICE WAKEFIELD VA
800 PM EDT SUN OCT 22 2017

Note: "fair" indicates few or no clouds below 12,000 feet with no
significant weather and/or obstructions to visibility. * = Denotes
station may not report precipitation (e.g., rain,snow,etc.),
thunder or fog.

VAZ042-051-052>054-056-230100-
NORTHERN VIRGINIA

CITY           SKY/WX    TMP DP  RH WIND       PRES   REMARKS
WASH NATIONAL  PTCLDY    66  47  50 S8        30.32R
DULLES         MOCLDY    65  55  70 SE7       30.32R
FORT BELVOIR   PTCLDY    61  54  79 CALM      30.31R
QUANTICO       PTCLDY    67  56  67 S5        30.33R
FREDERICKSBRG* CLOUDY    62  56  82 CALM      30.31R
STAFFORD*      CLOUDY    58  56  91 CALM      30.36R
WARRENTON      PTCLDY    63  52  67 SE5       30.31R
CULPEPER*      CLOUDY    63  55  73 CALM      30.32R
MANASSAS*      CLEAR     63  55  75 S3        30.32R
LEESBURG*      CLEAR     66  55  68 CALM      30.32R
WINCHESTER     PTCLDY    63  55  77 SE8       30.30R
FRONT ROYAL*   PTCLDY    66  55  68 CALM      30.29R
LURAY*         PTCLDY    63  54  72 CALM      30.30S
$$

VAZ048-049-060>072-079>083-230100-
CENTRAL AND SOUTH CENTRAL VIRGINIA

CITY           SKY/WX    TMP DP  RH WIND       PRES   REMARKS
RICHMOND       CLOUDY    64  57  78 SE8       30.31R
CHESTERFIELD*  NOT AVBL
PETERSBURG*    CLOUDY    60  53  75 E3        30.32R
HANOVER        CLOUDY    61  56  83 CALM      30.33R
TAPPAHANNOCK*  CLOUDY    65  54  67 E5        30.33R
QUINTON*       FAIR      62  58  87 CALM      30.31R
CHARLOTTSVILLE CLOUDY    70  57  63 SE3       30.30R
GORDONSVILLE*  CLOUDY    61  58  91 CALM      30.31R
ORANGE*        CLOUDY    59  54  82 CALM      30.31R
LOUISA*        CLOUDY    63  55  77 SE3       30.31S
BUMPASS*       FAIR      60  59  96 S6        30.31R
FARMVILLE*     PTCLDY    67  58  71 CALM      30.30R
CREWE*         FAIR      61  61 100 CALM      30.31R
FORT PICKETT*  FAIR      64  57  79 S6        30.32R
CHASE CITY*    FAIR      61  55  78 CALM      30.31R
CLARKSVILLE*   FAIR      63  57  82 CALM      30.29S
SOUTH HILL*    CLEAR     60  56  84 CALM      30.36R
LAWRENCEVILLE* FAIR      62  55  78 CALM      30.31R
EMPORIA*       CLOUDY    61  55  82 CALM      30.32R
$$

VAZ088>098-230100-
SOUTHEAST VIRGINIA

CITY           SKY/WX    TMP DP  RH WIND       PRES   REMARKS
NORFOLK        CLEAR     67  63  87 E5        30.31S
VIRGINIA BEACH MOCLDY    65  62  90 E6        30.31S
NORFOLK NAVAL  MOCLDY    65  61  87 E5        30.33R
WEST POINT*    CLEAR     62  61  96 E3        30.34R
SALUDA*        FAIR      65  63  94 SE3       30.32R
NEWPORT NEWS   CLEAR     63  60  90 E5        30.32R
LANGLEY AFB    CLEAR     68  63  86 SE5       30.32R
FORT EUSTIS    CLOUDY    66  61  81 E3        30.29R
WILLIAMSBURG*  CLOUDY    66  63  88 E3        30.33R
HR EXEC AP*    NOT AVBL
FRANKLIN*      CLOUDY    65  60  82 E5        30.32R
US460-WAKEFLD  CLOUDY    64  61  90 CALM      30.31R
$$

VAZ020-022-025-037-045-230100-
WEST CENTRAL AND SOUTHWEST VIRGINIA

CITY           SKY/WX    TMP DP  RH WIND       PRES   REMARKS
STAUNTON*      CLOUDY    62  53  72 CALM      30.33S
WAYNESBORO*    CLOUDY    62  55  77 CALM      30.32S
HOT SPRINGS VA CLOUDY    57  47  69 E6        30.37R
LYNCHBURG      CLOUDY    59  53  80 CALM      30.30S
DANVILLE       CLOUDY    62  55  77 E3        30.28S
SOUTH BOSTON*  FAIR      62  54  74 CALM      30.29S
MARTINSVILLE   CLOUDY    57  53  86 CALM      30.31R
ROANOKE        PTCLDY    66  51  58 CALM      30.31S
BLACKSBURG     PTCLDY    61  52  72 SE3       30.34S
DUBLIN*        MOCLDY    63  52  67 CALM      30.32S
MARION*        CLOUDY    62  49  61 E5        30.33R
HILLSVILLE*    CLEAR     59  46  63 CALM      30.31S
RICHLANDS*     FAIR      63  43  47 SE8       30.27R
WISE*          PTCLDY    64  52  63 S8        30.26S
ABINGDON*      CLOUDY    67  52  57 S6        30.26R
$$

MDZ021>025-VAZ099-100-230100-
SOUTHERN MARYLAND AND THE DELMARVA PENINSULA

CITY           SKY/WX    TMP DP  RH WIND       PRES   REMARKS
PATUXENT RIVER PTCLDY    67  61  81 SE9       30.32R
BAY BRIDGE APT CLOUDY    63  57  82 CALM      30.32R
LEONARDTOWN    NOT AVBL
DOVER          CLEAR     63  63 100 SE9       30.33R
GEORGETOWN     PTCLDY    61  59  93 SE6       30.34S
EASTON         PTCLDY    64  52  63 CALM      30.36R
CAMBRIDGE      CLEAR     63  57  82 SE6       30.32R
SALISBURY      CLEAR     60  60 100 SE5       30.33S
OCEAN CITY     CLEAR     66  64  93 SE6       30.35R
WALLOPS ISLAND CLEAR     64  64 100 CALM      30.34S
ACCOMACK*      PTCLDY    64  63  97 CALM      30.33S
$$

NCZ012>017-030>032-230100-
NORTH CENTRAL AND EASTERN NORTH CAROLINA

CITY           SKY/WX    TMP DP  RH WIND       PRES   REMARKS
ROANOKE RAPIDS FAIR      61  59  94 CALM      30.29R
RALEIGH        MOCLDY    66  59  78 VRB6      30.29R
ELIZABETH CITY PTCLDY    66  66 100 E5        30.31R
AHOSKIE*       CLEAR     67  60  78 CALM      30.30R
EDENTON*       PTCLDY    70  67  89 CALM      30.31R
CURRITUCK*     PTCLDY    68  66  93 CALM      30.32S
KILL DEVIL HLS PTCLDY    68  67  96 CALM      30.30S
MANTEO         PTCLDY   N/A N/A N/A E5        30.32R
CAPE HATTERAS  CLEAR     70  68  93 NE6       30.30S
TARBORO*       NOT AVBL
GOLDSBORO      MOCLDY    70  63  77 E6        30.27R HAZE
WASHINGTON     CLEAR     67  60  78 CALM      30.29S
GREENVILLE     PTCLDY    72  61  68 S5        30.30R
NEW BERN       CLEAR     70  64  81 E5        30.30R
WILMINGTON     CLEAR     69  66  90 E5        30.26S
$$

VAZ048-230100-
ELSEWHERE

CITY           SKY/WX    TMP DP  RH WIND       PRES   REMARKS
HARRISBURG PA  MOCLDY    58  54  86 CALM      30.31R
BALTIMORE      CLOUDY    60  55  83 CALM      30.31R
ANNAPOLIS      PTCLDY    64  58  80 CALM      30.32R
ANDREWS AFB    CLEAR     62  46  56 S3        30.32R
PHILADELPHIA   CLOUDY    63  45  51 SE7       30.34S
HENDERSON NC   CLEAR     62  52  71 CALM      30.30R
GREENSBORO     CLOUDY    68  58  70 CALM      30.27R
ROCKY MOUNT    CLOUDY    65  62  90 CALM      30.30R
$$

VAZ100-230100-
MARINE

STATION/POSITION TIME  TEMP    WIND        PRES    WAVE   SWELL
                       AIR SEA DIR/SP/G            HT/PER HT/PER
                 (UTC) (F)     (DEG/KT/KT) (MB)    (FT/S) (FT/S)
BRANDYWINE LGT   2348          140/ 12/ 14 1027.7R
CAPE MAY NJ      2348      66  120/  6/  6 1027.1R
LEWES DE         2348      67  150/  5/  7 1027.2R
15NM E FENWICK I 2350   68 68  110/ 10/ 12 1027.8F   2/ 9   2/ 9
OCEAN-CITY-INLET 2348      68  140/  5/  7 1027.9R
WACHAPREAGUE VA  2348      69  110/  2/  3 1027.1S
THOMAS POINT MD  0000   69 68  180/ 10/ 11   N/A
GOOSES REEF MD   0000   69 69  200/  6/  8 1025.8
COVE POINT MD    2348          170/ 11/ 13 1027.3R
SOLOMONS ISLAND  2348      70  150/  6/  7 1026.2R
BISHOPS HEAD MD  2348      69  120/  9/ 12 1027.1R
PINEY POINT MD   2342          170/ 10/ 13   N/A
POTOMAC MD       0000   69 70  160/ 14/ 17 1026.0    1/ 3
CAMBRIDGE MD     2348      68              1027.6R
LEWISETTA VA     2348      67  160/  7/  9 1026.4R
RAPPAHANNOCK LGT 2348          100/  9/ 11 1027.5R
STINGRAY PT      0000   69 69  150/ 12/ 16 1027.0    1/ 3
YORK RVR RNG VA  2348          130/ 14/ 15 1027.1R
YORKTOWN VA      2348      70  120/  7/ 10 1026.4R
JAMESTOWN VA     0000      70  120/  8/ 12   N/A     1
DOMINION TERM VA 2348          110/  7/ 11 1026.6R
KIPTOPEKE VA     2348      69  120/  7/  9   N/A
CAPE HENRY VA    2342          100/  8/ 10   N/A
WILLOUBY STN VA  2342          120/  9/ 10 1026.4R
S CRANEY ISL VA  2342          110/  6/  8 1026.3R
CAPE HENRY BUOY  0000      70                N/A     2/10
1ST LANDING BUOY 0000   69 69              1026.6    2/ 3
CAPE CHARLES BUO 2351      71                N/A     2/ 8
64NM E OF VA BCH 2350   70 70   90/ 10/ 12 1027.0R   3/ 9   2/ 9
DUCK PIER NC     2348      70   70/ 11/ 12 1026.1R
44100 DUCK FRF   2337      71                N/A     2/ 9
44056 DUCK FRF   0000      70                N/A     2/ 8
OREGON INLET NC  2348      71   50/  6/  9 1026.3R
HATTERAS NC      2348      73   70/  3/  5 1026.0R
DIAMOND SHLS NC  2350   76 81  110/  8/ 10 1025.8R   3/ 9   3/ 9
CAPE LOOKOUT NC  0000   75      80/ 12/ 13 1025.3R
$$




USA.gov is the U.S. government's official web portal to all federal, state and local government web resources and services.